Regional Weather Roundup
Issued by NWS

Home | Current Version | Previous Version | Text Only | Print | Product List | Glossary On
Versions: 1 2 3 4 5 6 7 8 9 10 11 12 13 14 15 16 17 18 19 20 21 22 23 24 25 26 27 28 29 30 31 32 33 34 35 36 37 38 39 40 41 42 43 44 45 46 47 48 49 50
000
ASUS45 KTFX 221019
RWRMT
MONTANA HOURLY WEATHER ROUNDUP
NATIONAL WEATHER SERVICE GREAT FALLS MT
419 AM MDT MON SEP 22 2014

NOTE: "FAIR" INDICATES FEW OR NO CLOUDS BELOW 12000 FEET WITH NO
SIGNIFICANT WEATHER AND/OR OBSTRUCTIONS TO VISIBILITY.

* THESE STATIONS ARE NOT UNDER NWS QUALITY CONTROL. THEY DO NOT
   REPORT WEATHER SUCH AS PRECIPITATION OR FOG.

MTZ001>007-043-221100-
WEST OF THE DIVIDE
CITY           SKY/WX    TMP DP  RH WIND       PRES   REMARKS
KALISPELL      PTCLDY    45  43  93 CALM      29.95S
MISSOULA       PTCLDY    54  43  67 CALM      29.98S
BUTTE          MOCLDY    48  39  71 SE5       30.12S
MULLAN PASS    CLEAR     63  37  38 NW5       30.10F
* ESSEX        N/A       49  42  77 E1         N/A
* LINCOLN      N/A       40  37  89 N1         N/A
* POLSON       N/A       57  42  57 N/A        N/A
* RONAN APT    CLEAR     48  41  77 N/A        N/A
* SEELEY LAKE  N/A       39  33  79 NE1        N/A
* THOMP F APT  CLEAR     51  50  96 NE1G7      N/A
$$

MTZ008-052>055-221100-
SOUTHWEST MONTANA
CITY           SKY/WX    TMP DP  RH WIND       PRES   REMARKS
BOZEMAN        CLOUDY    54  46  74 S6        30.08R
DILLON         LGT RAIN  55  52  90 W9        30.12S
W YELLOWSTONE  FOG       50  50 100 CALM      30.22F
* THREE FORKS  CLOUDY    50  32  50 N/A        N/A
* BOULDER HILL N/A       51  37  59 SW14       N/A
* MONIDA PASS  N/A       50  50 100 SE10       N/A
* RAYNOLDS PAS N/A       51  31  46 SE4        N/A
* WHITEHALL    N/A       51  44  77 N8         N/A
* WISE RIVER   N/A       44  35  71 W3         N/A
$$

MTZ009>010-012-014-046-048-049-054-221100-
EAST SLOPES AND CENTRAL MONTANA
CITY           SKY/WX    TMP DP  RH WIND       PRES   REMARKS
CUT BANK       PTCLDY    46  41  83 NW6       29.95F
GREAT FALLS    PTCLDY    55  45  69 S10       29.95F
HELENA         MOCLDY    54  45  72 CALM      30.02S
MALMSTROM AFB  PTCLDY    50  45  83 S2        29.96F
* CONRAD       PTCLDY    43  41  93 N/A        N/A
* EAST GLACIER N/A       56  38  51 N7         N/A
* MONARCH      N/A       49  37  63 S4         N/A
* PENDROY      N/A       55  46  72 W1         N/A
* ROGERS PASS  N/A       58  42  55 NW5        N/A
* SAINT MARY   N/A       39  36  89 SE2        N/A
* SWEET GRASS  N/A       54  45  72 S18        N/A
* WHITE SULPH  N/A       48  40  74 E3G14      N/A
$$

MTZ011-013-016-021-035-040-045-047-050-051-221100-
NORTH CENTRAL MONTANA
CITY           SKY/WX    TMP DP  RH WIND       PRES   REMARKS
HAVRE          PTCLDY    45  43  93 W6        29.93R
LEWISTOWN      PTCLDY    46  39  77 SE6       30.00F
* CHINOOK      CLEAR     50  45  83 E9        29.93F
* FORT BENTON  CLEAR     46  41  83 CALM      29.95S
* CHESTER      N/A       46  40  80 S2         N/A
* DENTON       N/A       48  42  80 N/A        N/A
* GEYSER       N/A       47  43  86 S4         N/A
* JUDITH GAP   N/A       50  43  77 SE4        N/A
* LOMA         N/A       52  45  77 E1         N/A
$$

MTZ017>020-022>027-061-062-221100-
NORTHEAST MONTANA
CITY           SKY/WX    TMP DP  RH WIND       PRES   REMARKS
GLASGOW        CLEAR     50  36  59 E13       29.99F
JORDAN         CLEAR     52  37  57 E3        29.99F
SIDNEY         CLEAR     39  34  82 CALM      30.08F
WOLF POINT     CLEAR     45  36  71 E6        30.03F
* BEAVER HILL  N/A       55  36  49 SE16       N/A
* CIRCLE       N/A       53  38  57 N/A        N/A
* LINDSAY DVD  N/A       48  35  61 E4         N/A
$$

MTZ028>042-056>058-221100-
SOUTHCENTRAL AND SOUTHEAST MONTANA
CITY           SKY/WX    TMP DP  RH WIND       PRES   REMARKS
BAKER          CLEAR     48  36  63 SE12      30.10F
BILLINGS       CLOUDY    57  43  60 SW6       30.01S
LIVINGSTON     CLOUDY    54  45  72 NW10      30.05F
MILES CITY     CLEAR     59  37  44 SE12      30.02F
* LAUREL APT   CLOUDY    55  39  55 N/A        N/A
* ROUNDUP APT  MOCLDY    48  43  83 N/A        N/A
* ALZADA       N/A       44  38  80 E2         N/A
* HYSHAM       N/A       65  40  40 S4         N/A
* LAME DEER    N/A       59  41  51 SE12G20    N/A
* REED POINT   N/A       53  46  77 SW4        N/A
* ROSCOE HILL  N/A       57  41  55 S2         N/A
$$

REGIONAL REPORTS...DAKOTAS
CITY           SKY/WX    TMP DP  RH WIND       PRES   REMARKS
WILLISTON      CLEAR     43  36  76 CALM      30.08F
DICKINSON      CLEAR     46  39  77 S13       30.11F
BEACH          HAZE      50  36  59 S13       30.09F
CROSBY         CLEAR     48  41  77 S12       30.08F
TIOGA          CLEAR     37  37 100 NE3       30.13S
WATFORD CITY   HAZE      45  37  74 E7        30.07F
BISMARCK       CLEAR     45  41  86 E3        30.18S
GRAND FORKS    CLEAR     45  45 100 S5        30.14S
FARGO          CLEAR     48  45  89 S8        30.18S
BUFFALO SD     PTCLDY    48  36  63 SE7       30.07F
RAPID CITY     CLEAR     46  37  71 SE9       30.16F
$$

REGIONAL REPORTS...WYOMING/IDAHO/WASHINGTON
CITY           SKY/WX    TMP DP  RH WIND       PRES   REMARKS
GILLETTE       CLOUDY    57  39  51 S14       30.11F
SHERIDAN       CLOUDY    54  45  72 CALM      30.04S
CODY           CLOUDY   N/A N/A N/A N/A        N/A
YELLOWSTONE LA CLOUDY    46  46 100 CALM      30.30F
SALMON         CLOUDY    63  48  58 CALM      30.05R
MULLAN PASS    CLEAR     63  37  38 NW5       30.10S
SAND POINT     MOCLDY    48  48 100 CALM      29.93R
SPOKANE        CLOUDY    63  43  48 CALM      29.90F
$$

REGIONAL REPORTS...ALBERTA
CITY           SKY/WX    TMP DP  RH WIND       PRES   REMARKS
CALGARY        N/A       54  39  57 CALM      29.86F
LETHBRIDGE     CLEAR     46  43  89 SW8       29.87F
MEDICINE HAT   CLEAR     52  45  77 VRB3      29.86F
EDMONTON       N/A       41  37  86 S8        29.76S
WATERTON GATE  N/A       59  39  48 SW14       N/A
CARDSTON       N/A       52  39  61 S5         N/A
MILK RIVER     N/A       43  41  93 S2         N/A
$$

REGIONAL REPORTS...SASKATCHEWAN
CITY           SKY/WX    TMP DP  RH WIND       PRES   REMARKS
SWIFT CURRENT  CLEAR     57  37  47 S23G29    29.92F
MOOSE JAW      N/A       45  41  86 SE8       30.00F
REGINA         N/A       43  39  86 SE9       30.03F
VAL MARIE      N/A       43  37  79 S1         N/A
ASSINIBOIA     N/A       46  36  68 S5         N/A
CORONACH       N/A       39  34  82 SE6        N/A   WCI  35

$$




USA.gov is the U.S. government's official web portal to all federal, state and local government web resources and services.